Weather History for Lima, OH

Change the Weather History Date:

Tuesday, July 23, 2013

  Actual Average (KFDY) Record (KFDY)
Temperature  
Mean Temperature 75 °F -  
Max Temperature 86 °F 82 °F 96 °F (2010)
Min Temperature 64 °F 62 °F 53 °F (1954)
Cooling Degree Days 10    
Growing Degree Days 25 (Base 50)    
Moisture  
Dew Point 65 °F    
Average Humidity 80    
Maximum Humidity 94    
Minimum Humidity 54    
Precipitation  
Precipitation 0.01 in - - ()
Sea Level Pressure  
Sea Level Pressure 29.78 in    
Wind  
Wind Speed 4 mph (WSW)    
Max Wind Speed 15 mph    
Max Gust Speed 23 mph    
Visibility 5 miles    
Events Fog    
Averages and records for this station are not official NWS values.
T = Trace of Precipitation, MM = Missing Value Source: NWS Daily Summary

Daily Weather History Graph

Daily Weather History Graph

Search for Another Location

Airport:

Trip Planner

Search our weather history database for the weather conditions in past years. The results will help you decide how hot, cold, wet, or windy it might be!

Date:

Astronomy

Jul. 23, 2013 Rise Set
Actual Time 6:24 AM EDT 8:59 PM EDT
Civil Twilight 5:53 AM EDT 9:31 PM EDT
Nautical Twilight 5:13 AM EDT 10:10 PM EDT
Astronomical Twilight 4:29 AM EDT 10:54 PM EDT
Moon 9:26 PM EDT (7/23) 7:32 AM EDT (7/23)
Length of Visible Light 15h 38m
Length of Day
14h 35m
Full, 99% of the Moon is Illuminated
Jul 23
Full
Jul 29
Last Quarter
Aug 6
New
Aug 14
First Quarter
Aug 20
Full

Hourly Weather History & Observations

Time (EDT) Temp. Heat Index Dew Point Humidity Pressure Visibility Wind Dir Wind Speed Gust Speed Precip Events Conditions
12:06 AM 66.2 °F - 64.4 °F 94% 29.82 in 0.8 mi Calm Calm - N/A   Clear
12:23 AM 68.0 °F - 64.4 °F 88% 29.84 in 1.5 mi Calm Calm - N/A   Clear
12:27 AM 66.2 °F - 64.4 °F 94% 29.84 in 3.0 mi Calm Calm - N/A   Clear
12:53 AM 66.9 °F - 64.0 °F 90% 29.81 in 7.0 mi Calm Calm - N/A   Clear
1:18 AM 66.2 °F - 62.6 °F 88% 29.82 in 1.8 mi Calm Calm - N/A   Clear
1:26 AM 64.4 °F - 62.6 °F 94% 29.83 in 0.5 mi Calm Calm - N/A Fog Fog
1:46 AM 66.2 °F - 62.6 °F 88% 29.83 in 1.0 mi Calm Calm - N/A   Clear
1:51 AM 66.2 °F - 62.6 °F 88% 29.83 in 3.0 mi Calm Calm - N/A   Clear
1:53 AM 66.0 °F - 63.0 °F 90% 29.81 in 2.0 mi Calm Calm - N/A   Clear
2:08 AM 64.4 °F - 62.6 °F 94% 29.83 in 6.0 mi Calm Calm - N/A   Clear
2:53 AM 66.0 °F - 63.0 °F 90% 29.80 in 4.0 mi Calm Calm - N/A   Clear
3:28 AM 66.2 °F - 62.6 °F 88% 29.81 in 2.5 mi SSE 4.6 mph - N/A   Partly Cloudy
3:33 AM 66.2 °F - 62.6 °F 88% 29.81 in 1.0 mi South 3.5 mph - N/A   Mist
3:37 AM 64.4 °F - 62.6 °F 94% 29.81 in 0.8 mi South 3.5 mph - N/A   Mist
3:46 AM 66.2 °F - 62.6 °F 88% 29.81 in 0.2 mi Calm Calm - N/A Fog Fog
3:53 AM 64.9 °F - 63.0 °F 93% 29.78 in 0.2 mi Calm Calm - N/A Fog Fog
4:00 AM 66.2 °F - 62.6 °F 88% 29.80 in 1.0 mi Calm Calm - N/A   Mist
4:04 AM 66.2 °F - 62.6 °F 88% 29.80 in 3.0 mi Calm Calm - N/A   Mostly Cloudy
4:12 AM 66.2 °F - 62.6 °F 88% 29.80 in 6.0 mi Calm Calm - N/A   Scattered Clouds
4:27 AM 66.2 °F - 62.6 °F 88% 29.80 in 1.8 mi South 4.6 mph - N/A   Scattered Clouds
4:33 AM 66.2 °F - 62.6 °F 88% 29.80 in 0.8 mi South 3.5 mph - N/A   Mist
4:44 AM 66.2 °F - 64.4 °F 94% 29.80 in 2.0 mi SSW 4.6 mph - N/A   Mostly Cloudy
4:47 AM 66.2 °F - 64.4 °F 94% 29.80 in 3.0 mi SSW 4.6 mph - N/A   Scattered Clouds
4:53 AM 66.9 °F - 64.0 °F 90% 29.78 in 4.0 mi SSW 4.6 mph - N/A   Scattered Clouds
5:53 AM 68.0 °F - 64.9 °F 90% 29.77 in 3.0 mi South 4.6 mph - 0.01 in   Clear
6:19 AM 68.0 °F - 64.4 °F 88% 29.78 in 2.0 mi South 6.9 mph - N/A   Clear
6:35 AM 69.8 °F - 64.4 °F 83% 29.79 in 3.0 mi SW 5.8 mph - N/A   Clear
6:53 AM 69.1 °F - 66.0 °F 90% 29.77 in 4.0 mi SSW 4.6 mph - N/A   Clear
7:25 AM 69.8 °F - 64.4 °F 83% 29.76 in 2.5 mi SSE 9.2 mph - N/A   Clear
7:38 AM 71.6 °F - 66.2 °F 83% 29.75 in 4.0 mi SSE 9.2 mph - N/A   Clear
7:53 AM 72.0 °F - 68.0 °F 87% 29.75 in 5.0 mi South 6.9 mph - N/A   Clear
8:53 AM 73.9 °F - 69.1 °F 85% 29.78 in 7.0 mi SW 6.9 mph - N/A   Clear
9:53 AM 78.1 °F - 70.0 °F 76% 29.76 in 9.0 mi SW 11.5 mph - N/A   Clear
10:14 AM 78.8 °F - 69.8 °F 74% 29.77 in 8.0 mi SW 12.7 mph 19.6 mph N/A   Partly Cloudy
10:53 AM 81.0 °F 84.9 °F 71.1 °F 72% 29.76 in 10.0 mi West 12.7 mph - N/A   Partly Cloudy
11:53 AM 82.0 °F 85.5 °F 69.1 °F 65% 29.77 in 10.0 mi West 8.1 mph - N/A   Partly Cloudy
12:53 PM 84.0 °F 86.3 °F 66.0 °F 55% 29.76 in 10.0 mi West 9.2 mph 19.6 mph N/A   Clear
1:53 PM 86.0 °F 89.4 °F 68.0 °F 55% 29.74 in 10.0 mi WSW 9.2 mph 19.6 mph N/A   Mostly Cloudy
2:53 PM 86.0 °F 90.1 °F 69.1 °F 57% 29.72 in 10.0 mi West 9.2 mph 16.1 mph N/A   Partly Cloudy
3:31 PM 84.2 °F 88.4 °F 69.8 °F 62% 29.74 in 10.0 mi WNW 11.5 mph - N/A   Overcast
3:53 PM 84.9 °F 88.2 °F 68.0 °F 57% 29.71 in 10.0 mi West 13.8 mph 23.0 mph N/A   Mostly Cloudy
4:53 PM 84.0 °F 86.3 °F 66.0 °F 55% 29.72 in 10.0 mi West 15.0 mph 21.9 mph N/A   Partly Cloudy
5:16 PM 82.4 °F 83.9 °F 64.4 °F 54% 29.74 in 10.0 mi WNW 12.7 mph - N/A   Partly Cloudy
5:53 PM 82.0 °F 83.8 °F 64.9 °F 56% 29.73 in 10.0 mi WNW 13.8 mph 20.7 mph N/A   Partly Cloudy
6:53 PM 80.1 °F 81.7 °F 64.0 °F 58% 29.72 in 10.0 mi NW 10.4 mph 17.3 mph N/A   Partly Cloudy
7:53 PM 78.1 °F - 64.9 °F 64% 29.74 in 10.0 mi NW 15.0 mph 19.6 mph N/A   Clear
8:53 PM 73.0 °F - 62.1 °F 68% 29.76 in 10.0 mi NW 11.5 mph 17.3 mph N/A   Clear
9:53 PM 71.1 °F - 61.0 °F 70% 29.79 in 10.0 mi NW 9.2 mph - N/A   Scattered Clouds
10:53 PM 70.0 °F - 57.9 °F 65% 29.81 in 10.0 mi NW 9.2 mph 17.3 mph N/A   Mostly Cloudy
11:53 PM 68.0 °F - 57.0 °F 68% 29.83 in 10.0 mi WNW 6.9 mph - N/A   Mostly Cloudy